Home > Weather > Burlington > Past weeks

Flag for Canada Past Weather in Burlington, Ontario, Canada — Yesterday and Last 2 Weeks

Now
76 °F

Mild.


Feels Like: 77 °F
Forecast: 61 / 72 °F
Wind: 7 mph from West

Location: Burlington Piers

Current Time: May 31, 2016 at 12:07:33 PM

Latest Report: May 31, 2016 at 11:00 AM


Visibility: N/A

Pressure: 29.98 "Hg

Humidity: 30%

Dew Point: 43 °F

Location of BurlingtonLocation

Past Weather in Burlington — Graph

°F

Burlington Temperature Yesterday

Maximum temperature yesterday: 80 °F (at 4:00 PM)
Minimum temperature yesterday: 65 °F (at 5:00 AM)
Average temperature yesterday: 73 °F

High & Low Weather Summary for the Past Weeks

 TemperatureHumidityPressure
High85 °F (May 27, 6:00 PM)98% (May 26, 6:00 PM)30.29 "Hg (May 26, 6:00 PM)
Low45 °F (May 17, 10:00 AM)16% (May 24, 7:00 PM)29.88 "Hg (May 30, 2:00 AM)
Average63 °F60%30.03 "Hg
* Reported May 16 11:00 AM — May 31 11:00 AM, Burlington, Weather by CustomWeather, © 2016

Note: Actual official high and low records may vary slightly from our data, if they occured in-between our weather recording intervals... More about our weather records

Advertising

Burlington Weather History for the Previous 24 Hours

Scroll right to see more
 ConditionsComfort  
Time TempWeatherWind HumidityBarometerVisibility
11:00 AM
Tue, May 31
76 °FMild.7 mph30%29.98 "HgN/A
10:00 AM73 °FMild.5 mph41%29.99 "HgN/A
9:00 AM70 °FMild.3 mph55%30.00 "HgN/A
8:00 AM67 °FMild.5 mph64%29.99 "HgN/A
7:00 AM65 °FMild.3 mph64%29.98 "HgN/A
6:00 AM65 °FMild.2 mph74%29.97 "HgN/A
5:00 AM63 °FMild.1 mph72%29.96 "HgN/A
4:00 AM65 °FMild.3 mph65%29.95 "HgN/A
3:00 AM65 °FMild.1 mph63%29.95 "HgN/A
2:00 AM65 °FMild.5 mph62%29.94 "HgN/A
1:00 AM69 °FMild.2 mph61%29.95 "HgN/A
12:00 AM70 °FMild.3 mph55%29.95 "HgN/A
11:00 PM
Mon, May 30
71 °FMild.5 mph48%29.94 "HgN/A
10:00 PM74 °FMild.2 mph44%29.93 "HgN/A
9:00 PM76 °FMild.2 mph37%29.93 "HgN/A
8:00 PM78 °FPleasantly warm.8 mph32%29.91 "HgN/A
7:00 PM78 °FPleasantly warm.9 mph29%29.91 "HgN/A
6:00 PM78 °FPleasantly warm.12 mph30%29.91 "HgN/A
5:00 PM79 °FPleasantly warm.15 mph31%29.91 "HgN/A
4:00 PM80 °FPleasantly warm.14 mph35%29.92 "HgN/A
3:00 PM78 °FWarm.8 mph40%29.92 "HgN/A
2:00 PM78 °FWarm.8 mph41%29.91 "HgN/A
1:00 PM76 °FMild.12 mph47%29.91 "HgN/A
12:00 PM77 °FWarm.7 mph51%29.91 "HgN/A
Weather by CustomWeather, © 2016

See weather overviewHow to use our weather pages